Regional Weather Roundup
Issued by NWS Charleston, WV

Current Version | Previous Version | Text Only | Print | Product List | Glossary On
Versions: 1 2 3 4 5 6 7 8 9 10 11 12 13 14 15 16 17 18 19 20 21 22 23 24 25 26 27 28 29 30 31 32 33 34 35 36 37 38 39 40 41 42 43 44 45 46 47 48 49 50
000
ASUS41 KRLX 041910
RWRRLX
West Virginia Regional Weather Roundup
National Weather Service Charleston WV
300 PM EDT FRI SEP 04 2015

Note: "fair" indicates few or no clouds below 12,000 feet with no
significant weather and/or obstructions to visibility.

WVZ003-042000-
Northern Panhandle of West Virginia

CITY           SKY/WX    TMP DP  RH WIND       PRES   REMARKS
WHEELING       PTSUNNY   78  65  63 CALM      30.10F
$$

WVZ009-042000-
Northwest West Virginia

CITY           SKY/WX    TMP DP  RH WIND       PRES   REMARKS
PARKERSBURG    CLOUDY    78  69  73 SW5       30.09F
$$

WVZ006-042000-
Western West Virginia

CITY           SKY/WX    TMP DP  RH WIND       PRES   REMARKS
HUNTINGTON     MOSUNNY   89  67  47 VRB3      30.05F
$$

WVZ015-042000-
West Central West Virginia

CITY           SKY/WX    TMP DP  RH WIND       PRES   REMARKS
CHARLESTON     MOSUNNY   89  66  46 NE9       30.06F
$$

WVZ022-031-042000-
North Central West Virginia

CITY           SKY/WX    TMP DP  RH WIND       PRES   REMARKS
CLARKSBURG     MOSUNNY   88  64  44 CALM      30.08F
MORGANTOWN     MOSUNNY   90  62  39 NE6       30.08F
$$

WVZ025-035-042-045-042000-
Southern West Virginia

CITY           SKY/WX    TMP DP  RH WIND       PRES   REMARKS
BECKLEY        MOSUNNY   83  64  52 NW9       30.14F
LOGAN            N/A     86  66  51 N6        30.10S
BLUEFIELD      PTSUNNY   81  62  52 N9        30.16F
LEWISBURG      PTSUNNY   82  59  46 NE6       30.13S THUNDER
$$

WVZ047-042000-
Northern Mountains of West Virginia

CITY           SKY/WX    TMP DP  RH WIND       PRES   REMARKS
ELKINS         PTSUNNY   82  65  56 VRB7      30.13F
$$

WVZ052-042000-
Eastern Panhandle of West Virginia

CITY           SKY/WX    TMP DP  RH WIND       PRES   REMARKS
MARTINSBURG    MOSUNNY   92  64  39 VRB3      30.03F
PETERSBURG     PTSUNNY   72  68  87 W7        30.08F
$$



USA.gov is the U.S. government's official web portal to all federal, state and local government web resources and services.